Showing default

COSMOS 2125, 21100

Orbit data source: Space-Track

COSMOS 2125, 21100 is a payload satellite owned by UNKS RF (CIS) in LEO that was launched on Tue, 12 Feb 1991 UTC via a KOSMOS 11K65M launch vehicle from the Plesetsk Missile And Space Complex (PKMTR). Payload-class satellites include a variety of spacecraft equipped with specific instruments for various scientific and technological missions. These include communications satellites like Starlink; space stations such as the ISS; scientific satellites like the Hubble; Earth observation satellites from companies like Planet Labs, Umbra, and HawkEye 360; GPS; miniature CubeSats for education and research; and military/defense satellites.

Loading next visibility...
Identifier
21100, 1991-009A
Orbit
LEO
Country
Flag of CISCIS
Related business
Manufacturer
NPO PM
Mission
Defense Communications
Bus & Motor
STRELA-1 11F625, Unknown motor
Mass
60 kg wet, 60 kg dry
Launch date (UTC)
1991-02-12 (35 years ago)
Launch vehicle
KOSMOS 11K65M
Launch site
Plesetsk Missile And Space Complex (PKMTR)
Object type
Payload
Rocket body
Debris
Shape & HBR
Sphere, Unknown HBR
Radar Cross Section
0.588 m², Medium (>0.1 m² and < 1m²)

Expand to show TLE details & history
Last TLE update: 10 hours ago

TLE from 10 hours ago
0 COSMOS 2125
1 21100U 91009A   26071.18027257 -.00000006  00000-0  66040-4 0  9998
2 21100  74.0265  89.3413 0010136 339.2255  86.5296 12.49965291600615
Epoch: 2026-03-12T04:19Z
TLE epoch observation values (Epoch: 2026-03-12T04:19:35.550Z)
Latitude
61.42404°
Longitude
-113.85989°
Altitude
1,474.295 km
Speed
7.132 km/s
True Right ascension
08h 03m 29s
True Declination
61° 17' 33"
Sunlit
Object was in daylight at epoch
Visualization orbit readout
Latitude
Unknown
Longitude
Unknown
Altitude
Unknown
Speed
Unknown
Apparent Right ascension
Unknown
Apparent Declination
Unknown
Sunlit
N/A
Visualization observer readout
Local Sidereal Time
18:19:13
Azimuth
Unknown
Elevation
Unknown
Doppler factor
Unknown
Orbital elements
Apogee altitude
1,470.423 km
Perigee altitude
1,454.528 km
Semi-major axis
7,840.612 km
Eccentricity
0.00101
Inclination
74.0265°
RAAN
89.3413°
Arg. of periapsis
339.2255°
True anomaly
86.64555°
Mean anomaly
86.5296°
Eccentric anomaly
86.58757°
Mean motion
3.12621 °/min
Orbital period
115.16 mins
BSTAR
0.00006604
Loading maneuver chart data...
Computing Atmospheric mass density...
Loading historical data...
Loading historical data...
Loading historical data...
Loading historical data...
Loading historical data...
Loading historical data...
Loading historical data...

Documentation

Showing up to 5 results
|